Regional Weather Roundup
Issued by NWS Albany, NY

Home | Current Version | Previous Version | Graphics & Text | Print | Product List | Glossary Off
Versions: 1 2 3 4 5 6 7 8 9 10 11 12 13 14 15 16 17 18 19 20 21 22 23 24 25 26 27 28

000
ASUS41 KALY 230410
RWRALY

NEW YORK STATE HOURLY WEATHER ROUNDUP
NATIONAL WEATHER SERVICE ALBANY NY
1200 AM EDT THU OCT 23 2014

NOTE: "FAIR" INDICATES FEW OR NO CLOUDS BELOW 12,000 FEET WITH NO
SIGNIFICANT WEATHER AND/OR NO OBSTRUCTIONS TO VISIBILITY.

NYZ032-033-038>043-046>054-057>066-NYZ062>081-230500-
EAST


CITY           SKY/WX    TMP DP  RH WIND       PRES   REMARKS
ALBANY         CLOUDY    52  43  71 N16G28    29.92F
GLENS FALLS    CLOUDY    52  42  69 N14G22    29.96F
POUGHKEEPSIE   LGT RAIN  50  47  89 N12G24    29.82F
NEWBURGH       LGT RAIN  48  48 100 N22G28    29.82F FOG
MONTGOMERY     LGT RAIN  49  47  93 N13       29.81S
WHITE PLAINS   CLOUDY    50  46  86 N16G31    29.72F
ISLIP          CLOUDY    52  48  86 N18G37    29.66R
NEW YORK CITY  CLOUDY    52  47  83 N16G29    29.73S
CENTRAL PARK   CLOUDY    51  47  86 MISG      29.76R
$$

NYZ005>009-017-018-044>046-055-056-230500-
CENTRAL


CITY           SKY/WX    TMP DP  RH WIND       PRES   REMARKS
FULTON         CLOUDY    49  39  68 N14       30.07F
SYRACUSE       CLOUDY    46  43  89 W7        30.06F
ROME           CLOUDY    48  40  73 VRB6      30.04F
ELMIRA         CLOUDY    48  42  80 N18G26    30.04F
BINGHAMTON     LGT RAIN  43  41  93 NW15      29.97F
MONTICELLO     CLOUDY    46  43  87 N20       29.85F
$$

NYZ026>034-041>043-230500-
NORTH


CITY           SKY/WX    TMP DP  RH WIND       PRES   REMARKS
WATERTOWN      CLEAR     48  34  58 NE10      30.11F
FORT DRUM      NOT AVBL
MASSENA        MOCLDY    46  35  65 NE15      30.18F
SARANAC LAKE   CLOUDY    42  36  79 NE6       30.06F
PLATTSBURGH    CLOUDY    46  36  68 N20       30.11F
$$

NYZ001>004-010>016-019>021-230500-
WEST


CITY           SKY/WX    TMP DP  RH WIND       PRES   REMARKS
NIAGARA FALLS  CLOUDY    46  41  82 N7        30.19F
BUFFALO        MOCLDY    46  41  82 N8        30.18F
DUNKIRK        CLOUDY    50  42  74 N7        30.19F
JAMESTOWN      CLOUDY    43  39  87 N8        30.16F
WELLSVILLE     CLOUDY    43  41  93 N12       30.10F
ROCHESTER      PTCLDY    49  42  77 N10       30.15F
PENN YAN       CLOUDY    48  41  76 N10G18    30.09F
$$

             KEY
       WCI = WIND CHILL INDEX
       VSB = VISIBILITY
       HX  = HEAT INDEX
$$



USA.gov is the U.S. government's official web portal to all federal, state and local government web resources and services.